Latest Weather Observations for Kempsey Airport

IDN60801

Issued at 11:35 pm EDT Wednesday 26 November 2014 (issued every 30 minutes, with the page automatically refreshed every 10 minutes)

About weather observations | Map of weather stations | Latest weather observations for NSW | Other Formats
Station Details ID: 059007 Name: KEMPSEY AIRPORT AWS Lat: -31.07 Lon: 152.77 Height: 13.0 m
Data from the previous 72 hours. | See also: Recent months for locations in New South Wales
Date/Time
EDT
Temp
°C
App
Temp
°C
Dew
Point
Rel
Hum
%
Delta-T
°C
Wind Press
QNH
hPa
Press
MSL
hPa
Rain
since 9 am
mm
Dir
 
Spd
km/h
Gust
km/h
Spd
kts
Gust
kts
26/11:30pm 20.6 23.2 18.5 88 1.3 W 2 7 1 4 1017.0 1016.9 0.6
26/11:00pm 20.5 23.5 18.4 88 1.3 CALM 0 6 0 3 1017.2 1017.1 0.6
26/10:30pm 20.5 22.3 18.4 88 1.3 W 6 9 3 5 1017.1 1017.0 0.6
26/10:00pm 20.6 23.6 18.4 87 1.4 CALM 0 0 0 0 1017.2 1017.1 0.6
26/09:30pm 20.8 23.9 18.7 88 1.3 CALM 0 0 0 0 1017.3 1017.2 0.6
26/09:00pm 20.6 23.6 18.4 87 1.4 CALM 0 0 0 0 1017.3 1017.2 0.6
26/08:30pm 20.9 23.9 18.5 86 1.5 CALM 0 0 0 0 1017.3 1017.2 0.6
26/08:00pm 20.9 22.9 18.7 87 1.4 SW 6 7 3 4 1017.2 1017.1 0.6
26/07:30pm 21.0 23.6 18.4 85 1.6 WNW 2 7 1 4 1017.0 1016.9 0.6
26/07:00pm 21.1 24.1 18.5 85 1.6 CALM 0 0 0 0 1016.8 1016.7 0.6
26/06:30pm 21.3 22.5 18.3 83 1.9 W 9 9 5 5 1016.5 1016.4 0.6
26/06:00pm 21.6 23.2 18.2 81 2.1 WNW 7 9 4 5 1016.1 1016.0 0.6
26/05:30pm 22.0 24.3 17.8 77 2.6 NNW 2 9 1 5 1016.3 1016.2 0.6
26/05:00pm 21.9 23.5 17.9 78 2.5 NNW 6 7 3 4 1016.3 1016.2 0.6
26/04:30pm 21.6 23.1 17.6 78 2.5 N 6 13 3 7 1016.4 1016.3 0.6
26/04:00pm 22.0 20.8 17.4 75 2.8 NNE 20 24 11 13 1016.3 1016.2 0.6
26/03:30pm 22.2 23.0 17.3 74 3.0 ESE 9 13 5 7 1016.6 1016.5 0.6
26/03:00pm 22.4 23.2 17.3 73 3.1 E 9 13 5 7 1017.1 1017.0 0.6
26/02:30pm 22.4 23.8 17.3 73 3.1 ESE 6 9 3 5 1017.3 1017.2 0.6
26/02:00pm 22.1 22.6 17.5 75 2.8 E 11 15 6 8 1017.7 1017.6 0.6
26/01:30pm 22.4 23.2 17.3 73 3.1 E 9 11 5 6 1018.0 1017.9 0.6
26/01:00pm 21.8 23.7 18.6 82 2.0 SSE 6 9 3 5 1018.2 1018.1 0.6
26/12:30pm 21.0 22.8 18.2 84 1.7 SW 6 9 3 5 1018.5 1018.4 0.6
26/12:00pm 20.8 22.2 18.6 87 1.4 SE 9 13 5 7 1018.8 1018.7 0.6
26/11:30am 22.0 24.3 17.8 77 2.6 ESE 2 7 1 4 1018.8 1018.7 0.0
26/11:00am 22.1 23.2 18.1 78 2.5 SSE 9 11 5 6 1019.0 1018.9 0.0
26/10:30am 22.7 24.3 18.3 76 2.8 ESE 7 13 4 7 1018.9 1018.8 0.0
26/10:00am 22.6 24.6 18.8 79 2.4 WSW 6 9 3 5 1018.8 1018.7 0.0
26/09:30am 21.4 23.1 18.6 84 1.8 W 7 9 4 5 1019.2 1019.1 0.0
26/09:00am 20.5 21.8 18.4 88 1.3 WSW 9 11 5 6 1019.2 1019.1 1.0
26/08:30am 20.0 21.5 18.1 89 1.2 WSW 7 9 4 5 1019.3 1019.2 1.0
26/08:00am 19.5 21.0 18.0 91 0.9 WSW 7 11 4 6 1019.5 1019.4 1.0
26/07:30am 19.1 20.5 17.8 92 0.8 W 7 11 4 6 1019.3 1019.2 1.0
26/07:00am 19.0 19.5 17.5 91 0.9 WSW 11 15 6 8 1018.8 1018.7 1.0
26/06:30am 19.2 20.0 17.3 89 1.2 WSW 9 13 5 7 1018.6 1018.5 1.0
26/06:00am 19.5 21.3 17.3 87 1.3 SSE 4 7 2 4 1018.4 1018.3 0.8
26/05:30am 19.4 19.9 17.4 88 1.2 WSW 11 13 6 7 1018.3 1018.2 0.8
26/05:00am 19.3 20.1 17.3 88 1.2 WSW 9 13 5 7 1017.9 1017.8 0.8
26/04:30am 19.4 19.9 17.4 88 1.2 WSW 11 15 6 8 1018.0 1017.9 0.8
26/04:00am 19.4 20.2 17.4 88 1.2 WSW 9 11 5 6 1017.9 1017.8 0.8
26/03:30am 19.4 21.9 17.2 87 1.3 CALM 0 4 0 2 1017.9 1017.8 0.8
26/03:00am 19.4 20.6 17.4 88 1.2 SW 7 11 4 6 1017.9 1017.8 0.6
26/02:30am 19.4 20.6 17.4 88 1.2 SW 7 9 4 5 1018.3 1018.2 0.6
26/02:00am 19.5 20.7 17.3 87 1.3 WSW 7 11 4 6 1018.5 1018.4 0.6
26/01:30am 19.6 20.9 17.6 88 1.2 SW 7 11 4 6 1018.9 1018.8 0.6
26/01:00am 19.8 20.6 17.4 86 1.5 SW 9 11 5 6 1019.3 1019.2 0.6
26/12:30am 20.0 21.8 17.4 85 1.6 WSW 4 9 2 5 1019.7 1019.6 0.6
26/12:00am 20.0 21.3 17.2 84 1.7 SSW 6 9 3 5 1019.7 1019.6 0.6
 
Date/Time
EDT
Temp
°C
App
Temp
°C
Dew
Point
Rel
Hum
%
Delta-T
°C
Wind Press
QNH
hPa
Press
MSL
hPa
Rain
since 9 am
mm
Dir
 
Spd
km/h
Gust
km/h
Spd
kts
Gust
kts
25/11:30pm 20.1 20.5 17.3 84 1.7 S 11 17 6 9 1019.8 1019.7 0.6
25/11:00pm 20.3 21.3 17.7 85 1.6 SW 9 11 5 6 1019.7 1019.6 0.6
25/10:30pm 20.6 22.0 17.4 82 2.0 S 6 7 3 4 1019.9 1019.8 0.6
25/10:00pm 20.8 21.3 17.4 81 2.1 S 11 15 6 8 1019.5 1019.4 0.6
25/09:30pm 20.8 21.7 17.6 82 2.0 S 9 13 5 7 1019.2 1019.1 0.6
25/09:00pm 20.8 21.1 17.8 83 1.8 S 13 17 7 9 1018.7 1018.6 0.6
25/08:30pm 21.0 22.3 17.6 81 2.1 SSW 7 11 4 6 1018.8 1018.7 0.6
25/08:00pm 21.2 22.2 17.8 81 2.1 S 9 13 5 7 1018.4 1018.3 0.6
25/07:30pm 21.4 22.6 18.2 82 2.0 S 9 13 5 7 1017.7 1017.6 0.6
25/07:00pm 21.7 21.6 17.9 79 2.4 S 15 20 8 11 1017.6 1017.5 0.6
25/06:30pm 21.9 22.3 18.1 79 2.4 S 13 17 7 9 1017.2 1017.1 0.6
25/06:00pm 22.3 22.7 18.9 81 2.1 SSE 15 20 8 11 1016.6 1016.5 0.6
25/05:30pm 22.2 23.3 19.6 85 1.7 SSE 13 19 7 10 1015.8 1015.7 0.6
25/05:00pm 23.0 21.7 19.0 78 2.5 SSE 24 41 13 22 1015.4 1015.3 0.4
25/04:30pm 25.5 25.4 17.9 63 4.8 SE 15 24 8 13 1014.3 1014.2 0.4
25/04:00pm 26.0 25.8 17.6 60 5.3 SE 15 20 8 11 1014.5 1014.4 0.4
25/03:30pm 26.7 27.7 21.0 71 3.8 SE 17 22 9 12 1014.0 1013.9 0.4
25/03:00pm 26.7 28.8 20.1 67 4.3 SE 9 13 5 7 1013.8 1013.7 0.4
25/02:30pm 26.3 28.5 20.4 70 3.9 SE 9 15 5 8 1013.8 1013.7 0.4
25/02:00pm 26.4 28.5 20.9 72 3.6 SSE 11 17 6 9 1013.6 1013.5 0.4
25/01:30pm 25.7 26.9 20.7 74 3.3 ENE 15 20 8 11 1013.1 1013.0 0.4
25/01:00pm 25.5 27.1 20.7 75 3.1 E 13 19 7 10 1013.7 1013.6 0.4
25/12:30pm 25.9 26.6 22.2 80 2.5 SSE 22 32 12 17 1013.8 1013.7 0.4
25/12:00pm 29.4 29.0 18.8 53 6.8 S 19 20 10 11 1013.4 1013.3 0.2
25/11:30am 30.5 31.1 17.6 46 8.2 ESE 11 15 6 8 1012.8 1012.7 0.2
25/11:00am 31.8 31.4 16.1 38 9.8 SSE 13 22 7 12 1012.6 1012.5 0.2
25/10:30am 31.5 32.9 17.8 44 8.8 SE 7 13 4 7 1012.5 1012.4 0.2
25/10:00am 32.1 33.9 18.7 45 8.7 S 7 13 4 7 1012.6 1012.5 0.2
25/09:30am 30.7 32.2 18.1 47 8.1 NW 7 17 4 9 1012.4 1012.3 0.2
25/09:00am 29.3 31.4 20.2 58 6.0 WNW 9 11 5 6 1012.5 1012.4 0.0
25/08:30am 27.2 29.8 20.5 67 4.4 W 7 11 4 6 1012.5 1012.4 0.0
25/08:00am 26.0 30.1 20.8 73 3.4 CALM 0 6 0 3 1012.4 1012.3 0.0
25/07:30am 23.8 26.4 20.1 80 2.4 NW 6 9 3 5 1012.2 1012.1 0.0
25/07:00am 22.3 25.9 19.8 86 1.6 CALM 0 0 0 0 1011.9 1011.8 0.0
25/06:30am 20.8 24.3 19.6 93 0.8 CALM 0 2 0 1 1011.7 1011.6 0.0
25/06:00am 19.7 22.7 18.4 92 0.8 CALM 0 0 0 0 1011.4 1011.3 0.0
25/05:30am 20.0 23.0 18.5 91 0.9 CALM 0 0 0 0 1011.0 1010.9 0.0
25/05:00am 20.3 22.7 18.8 91 0.9 W 4 11 2 6 1010.8 1010.7 0.0
25/04:30am 20.6 23.8 18.9 90 1.1 CALM 0 0 0 0 1010.8 1010.7 0.0
25/04:00am 20.8 23.0 19.1 90 1.1 SW 6 7 3 4 1010.5 1010.4 0.0
25/03:30am 21.1 23.3 19.2 89 1.2 W 6 9 3 5 1010.4 1010.3 0.0
25/03:00am 21.5 23.7 19.6 89 1.2 NW 7 9 4 5 1010.5 1010.4 0.0
25/02:30am 21.8 24.3 19.9 89 1.2 WNW 6 7 3 4 1010.5 1010.4 0.0
25/02:00am 21.6 23.6 19.9 90 1.1 W 9 13 5 7 1010.9 1010.8 0.0
25/01:30am 20.9 23.0 19.4 91 1.0 W 7 9 4 5 1011.1 1011.0 0.0
25/01:00am 20.8 22.9 18.9 89 1.2 SSW 6 7 3 4 1011.3 1011.2 0.0
25/12:30am 21.1 23.2 19.0 88 1.3 S 6 9 3 5 1011.5 1011.4 0.0
25/12:00am 21.7 23.9 19.3 86 1.5 ENE 6 9 3 5 1011.7 1011.6 0.0
 
Date/Time
EDT
Temp
°C
App
Temp
°C
Dew
Point
Rel
Hum
%
Delta-T
°C
Wind Press
QNH
hPa
Press
MSL
hPa
Rain
since 9 am
mm
Dir
 
Spd
km/h
Gust
km/h
Spd
kts
Gust
kts
24/11:30pm 22.3 23.8 19.7 85 1.7 SE 11 15 6 8 1011.5 1011.4 0.0
24/11:00pm 22.6 26.3 19.9 85 1.7 CALM 0 0 0 0 1012.0 1011.9 0.0
24/10:30pm 22.5 24.1 20.0 86 1.6 ESE 11 13 6 7 1011.4 1011.3 0.0
24/10:00pm 22.3 23.5 19.8 86 1.6 SSW 13 17 7 9 1011.1 1011.0 0.0
24/09:30pm 22.8 25.0 19.6 82 2.0 E 7 13 4 7 1010.0 1009.9 0.0
24/09:00pm 23.0 25.2 19.6 81 2.2 S 7 11 4 6 1009.8 1009.7 0.0
24/08:30pm 24.1 26.0 19.0 73 3.2 ESE 7 13 4 7 1009.4 1009.3 0.0
24/08:00pm 24.2 25.4 19.1 73 3.3 S 11 15 6 8 1009.4 1009.3 0.0
24/07:30pm 24.3 25.7 18.7 71 3.6 SSE 9 13 5 7 1008.9 1008.8 0.0
24/07:00pm 24.9 25.5 18.6 68 4.0 SE 13 15 7 8 1007.9 1007.8 0.0
24/06:30pm 25.7 26.7 18.6 65 4.5 ESE 11 13 6 7 1007.7 1007.6 0.0
24/06:00pm 26.5 26.9 18.9 63 4.9 E 15 20 8 11 1007.6 1007.5 0.0
24/05:30pm 27.4 27.4 18.9 59 5.5 ESE 17 20 9 11 1006.9 1006.8 0.0
24/05:00pm 29.0 28.6 19.0 54 6.5 ENE 19 26 10 14 1007.0 1006.9 0.0
24/04:30pm 30.4 30.4 19.7 52 7.0 ENE 19 24 10 13 1007.4 1007.3 0.0
24/04:00pm 30.3 30.9 20.2 54 6.7 E 17 22 9 12 1007.6 1007.5 0.0
24/03:30pm 30.5 30.2 20.4 54 6.7 E 22 30 12 16 1008.0 1007.9 0.0
24/03:00pm 31.0 30.7 20.3 53 7.1 E 22 30 12 16 1008.3 1008.2 0.0
24/02:30pm 31.6 31.4 21.2 54 7.0 E 24 32 13 17 1009.2 1009.1 0.0
24/02:00pm 31.8 32.4 21.3 53 7.1 E 20 32 11 17 1009.8 1009.7 0.0
24/01:30pm 32.8 33.2 21.0 50 7.9 E 20 28 11 15 1010.2 1010.1 0.0
24/01:00pm 32.9 32.6 21.1 50 7.9 E 24 32 13 17 1010.7 1010.6 0.0
24/12:30pm 32.9 34.0 22.4 54 7.2 E 20 30 11 16 1011.2 1011.1 0.0
24/12:00pm 31.1 31.1 20.1 52 7.3 E 20 26 11 14 1011.7 1011.6 0.0
24/11:30am 31.4 31.1 20.4 52 7.3 E 22 30 12 16 1012.2 1012.1 0.0
24/11:00am 32.2 33.7 20.5 50 7.8 ENE 13 20 7 11 1012.5 1012.4 0.0
24/10:30am 31.3 32.1 17.2 42 9.0 NE 9 15 5 8 1013.0 1012.9 0.0
24/10:00am 29.7 31.4 18.5 51 7.2 NNE 7 9 4 5 1013.4 1013.3 0.0
24/09:30am 27.6 29.6 19.1 59 5.5 NE 7 11 4 6 1013.6 1013.5 0.0
24/09:00am 25.5 28.2 19.4 69 3.9 NE 4 7 2 4 1013.8 1013.7 0.0
24/08:30am 23.8 27.2 19.3 76 2.9 CALM 0 0 0 0 1014.0 1013.9 0.0
24/08:00am 22.5 25.4 19.9 85 1.7 SE 4 6 2 3 1013.9 1013.8 0.0
24/07:30am 21.2 24.8 19.7 91 1.0 CALM 0 0 0 0 1013.9 1013.8 0.0
24/07:00am 20.3 22.5 19.1 93 0.8 SE 6 6 3 3 1013.9 1013.8 0.0
24/06:30am 19.6 21.0 18.6 94 0.6 W 9 11 5 6 1013.9 1013.8 0.0
24/06:00am 17.8 20.1 16.7 93 0.7 CALM 0 0 0 0 1013.1 1013.0 0.0
24/05:30am 17.8 18.9 16.7 93 0.7 NE 6 9 3 5 1012.9 1012.8 0.0
24/05:00am 18.2 20.6 16.9 92 0.8 CALM 0 0 0 0 1012.4 1012.3 0.0
24/04:30am 18.8 21.3 17.3 91 0.9 CALM 0 0 0 0 1012.5 1012.4 0.0
24/04:00am 19.0 21.5 17.3 90 1.0 CALM 0 0 0 0 1012.5 1012.4 0.0
24/03:30am 20.1 22.3 18.4 90 1.1 N 4 9 2 5 1012.6 1012.5 0.0
24/03:00am 20.0 21.7 18.5 91 0.9 E 7 9 4 5 1012.6 1012.5 0.0
24/02:30am 19.6 21.1 17.7 89 1.2 SSE 6 7 3 4 1013.0 1012.9 0.0
24/02:00am 19.8 21.7 16.8 83 1.8 E 2 7 1 4 1013.2 1013.1 0.0
24/01:30am 21.1 22.6 18.1 83 1.9 NE 7 9 4 5 1013.4 1013.3 0.0
24/01:00am 21.5 23.9 17.9 80 2.2 SW 2 9 1 5 1013.4 1013.3 0.0
24/12:30am 22.9 25.9 18.4 76 2.8 CALM 0 6 0 3 1013.7 1013.6 0.0
24/12:00am 24.0 24.4 18.2 70 3.6 NE 13 17 7 9 1013.7 1013.6 0.0

Other Formats:

Comma delimited format used in spreadsheet applications
http://www.bom.gov.au/fwo/IDN60801/IDN60801.94785.axf

JavaScript Object Notation format (JSON) in row-major order
http://www.bom.gov.au/fwo/IDN60801/IDN60801.94785.json